Location: *
(51.2167°N, 10.0667°E)
Time: 15:36:53
(UTC+00:00)

Cosmos 1627 Rocket - Pass Details

Date: 12 December 2019
Orbit: 951 x 1003 km, 82.9° (Epoch: 18 January)

Event Time Altitude Azimuth Distance (km) Brightness Sun altitude
Rises 17:30:27 0° 191° (S) 3,614 7.8 -20.4°
Reaches altitude 10° 17:32:56 10° 192° (SSW) 2,672 7.1 -20.8°
Maximum altitude 17:39:03 81° 280° (W) 973 4.5 -21.7°
Drops below altitude 10° 17:45:15 10° 8° (N) 2,705 6.6 -22.7°
Sets 17:47:46 0° 10° (N) 3,662 7.3 -23.1°
